sat.trackr.live / text

‹ back to catalog

STARLINK-30886

NORAD 58246 · 2023-171S

PAYLOAD ACTIVE UNKNOWN

§ Identity

Operator
Country
US
Launch date
2023-11-08
Launch site
AFETR
Launch vehicle
Mass (kg)
RCS (m²)

Purposes: comms

External: N2YO · Heavens-Above · Gunter

§ Orbital elements

Epoch: 2026-09-20T00:07:19.381152Z

Period
94.27 min
Inclination
43.0034°
Eccentricity
0.0000848
Mean motion
15.27576772 rev/d
Perigee alt
482.5 km
Apogee alt
483.6 km
Semi-major
6,861.2 km
B*
1.6115e-5
RAAN
267.7456°
Arg perigee
293.7418°
Mean anomaly
66.3345°
Rev number
15,945

§ Raw data

STARLINK-308861 58246U 23171S   26263.00508543  .00000181  00000+0  16115-4 0  99902 58246  43.0034 267.7456 0000848 293.7418  66.3345 15.27576772159452

JSON: /api/v1/satellites/58246 · /tle

For live sub-satellite position, see the globe view (requires WebGL).

§ Visibility from observer

Set your observer location to see the next 7 days of passes ≥ 10°. The values pass through the URL so the page stays shareable.

No JS? Fill the form by hand. The geolocation button needs JavaScript.